YAMAL 402

Last updated on Mon Jun 22 2026 00:03:04 GMT+0000 (Coordinated Universal Time)

1 39022U 12070A 26172.54339211 .00000084 00000+0 00000+0 0 9992 2 39022 1.2772 84.1139 0003866 4.4259 71.7085 1.00271782 49447
UTC large
Height (km)
Speed (km/s)
/
Latitude / Longitude
Inclination (degrees)
Orbital Period (minutes)
Azimuth
Elevation
Range (km)
Doppler Factor

Next 0 passes for location: London (51.5072 / 0.1276)

No passes found over London.
YAMAL 402